Location: Unspecified
(48.7670°N, 0.0000°E)
Time: 00:40:14
(UTC+00:00)

Courier 1B - Pass Details

Date: 25 June 2019
Orbit: 963 x 1209 km, 28.3° (Epoch: 21 July)

Event Time Altitude Azimuth Distance (km) Brightness Sun altitude
Rises 19:33:31 0° 236° (SW) 3,843 11.0 3.7°
Reaches altitude 10° 19:37:48 10° 212° (SSW) 2,944 10.0 3.1°
Maximum altitude 19:41:10 14° 184° (S) 2,712 9.6 2.7°
Drops below altitude 10° 19:44:36 10° 156° (SSE) 3,028 9.6 2.2°
Sets 19:49:08 0° 133° (SE) 4,037 10.0 1.6°
